PROBA-1 1 26958U 01049B 26248.31107508 .00001775 00000+0 11696-3 0 9996 2 26958 97.9624 259.6681 0053711 210.7921 149.0152 15.07779986355694 CUTE-1 (CO-55) 1 27844U 03031E 26247.48640235 .00000142 00000+0 80385-4 0 9999 2 27844 98.6770 255.0598 0008765 321.2746 38.7804 14.24376449202962 CUBESAT XI-IV (CO-57) 1 27848U 03031J 26248.28791708 .00000122 00000+0 72901-4 0 9997 2 27848 98.6801 255.4995 0009001 339.0199 21.0609 14.23656189202777 APRIZESAT 4 1 35684U 09041D 26248.16123863 .00000326 00000+0 45467-4 0 9992 2 35684 98.1356 325.0544 0044379 63.0970 297.4769 14.83979247923221 APRIZESAT 3 1 35686U 09041F 26247.00672600 .00000893 00000+0 81724-4 0 9999 2 35686 98.2177 44.0693 0061549 165.5362 194.7638 14.96429805928165 PROBA-2 1 36037U 09059B 26248.29445534 .00000077 00000+0 28451-4 0 9997 2 36037 98.2481 70.5560 0014033 37.8329 322.3852 14.54890826893179 APRIZESAT 5 1 37792U 11044E 26248.26425452 .00000482 00000+0 67906-4 0 9995 2 37792 98.2467 183.5849 0053384 104.3930 256.3215 14.81193842810641 APRIZESAT 6 1 37793U 11044F 26248.24102632 .00000276 00000+0 46437-4 0 9993 2 37793 98.2289 160.3510 0042726 187.9822 325.1372 14.77012780808964 PROBA-V 1 39159U 13021A 26248.17300392 .00000036 00000+0 33758-4 0 9999 2 39159 98.3685 222.8658 0002939 256.2465 103.8388 14.23611433692493 APRIZESAT 7 1 39416U 13066A 26247.84672834 .00000555 00000+0 60279-4 0 9994 2 39416 97.7781 199.9570 0034517 308.9932 50.8214 14.91728615693101 APRIZESAT 8 1 39425U 13066K 26247.57394809 .00000652 00000+0 76203-4 0 9999 2 39425 97.8279 193.9603 0046530 26.4157 333.9417 14.87775987691471 BUGSAT-1 (TITA) 1 40014U 14033E 26248.29907721 .00003768 00000+0 19692-3 0 9992 2 40014 98.0414 345.5752 0026119 266.8476 92.9767 15.16293150667974 SAUDISAT 4 1 40016U 14033G 26248.25765964 .00000415 00000+0 61299-4 0 9998 2 40016 97.7700 31.6819 0044939 171.0423 189.1601 14.79628475657915 APRIZESAT 9 1 40018U 14033J 26247.21015492 .00000240 00000+0 42976-4 0 9996 2 40018 97.9167 18.5269 0064864 307.0142 52.5142 14.74296661655203 APRIZESAT 10 1 40019U 14033K 26248.26092540 .00000189 00000+0 37687-4 0 9997 2 40019 97.9746 13.4775 0079098 19.0980 341.3163 14.70959764654025 TECHDEMOSAT-1 (TDS-1) 1 40076U 14037H 26248.27047786 .00004366 00000+0 24270-3 0 9991 2 40076 98.3877 248.5120 0006243 14.0053 346.1349 15.14303542660348 TECHNOSAT 1 42829U 17042E 26248.22454150 .00001659 00000+0 11963-3 0 9997 2 42829 97.4394 42.9088 0017596 174.8061 185.3352 15.05356839498743 FLYING LAPTOP 1 42831U 17042G 26248.29610016 .00001412 00000+0 11325-3 0 9991 2 42831 97.4993 40.9416 0015827 210.6177 149.4125 15.01551954498476 HAWK-A 1 43765U 18099H 26248.13149488 .00003189 00000+0 12659-3 0 9998 2 43765 97.3840 299.3400 0034086 6.6852 353.4834 15.25556190425283 HAWK-B 1 43794U 18099AN 26248.11945434 .00002870 00000+0 12109-3 0 9999 2 43794 97.3889 298.5710 0031981 25.6162 334.6651 15.23647141425204 HAWK-C 1 43799U 18099AT 26248.11837169 .00003988 00000+0 14018-3 0 9991 2 43799 97.3813 300.6436 0039311 4.7653 355.3953 15.29222050426125 SALSAT 1 46495U 20068K 26248.24542864 .00004576 00000+0 15640-3 0 9991 2 46495 97.8892 256.2611 0010218 31.5733 328.6117 15.30804542327608 HAWK-2C 1 47502U 21006CT 26248.19850501 .00003559 00000+0 10531-3 0 9992 2 47502 97.2218 290.9311 0004822 274.0352 86.0341 15.35535695311771 HAWK-2A 1 47505U 21006CW 26248.19913457 .00003519 00000+0 10403-3 0 9999 2 47505 97.2259 291.6583 0004406 280.5903 79.4845 15.35577880311777 HAWK-2B 1 47508U 21006CZ 26248.18822922 .00003993 00000+0 11715-3 0 9990 2 47508 97.2132 289.8554 0004836 276.4956 83.5738 15.35728210311778 HAWK-3B 1 48931U 21059BE 26248.03839213 .00038231 00000+0 24214-3 0 9995 2 48931 97.6578 92.6979 0004252 42.8076 317.3519 15.76466692290407 HAWK-3C 1 48948U 21059BX 26248.16502251 .00038971 00000+0 24662-3 0 9994 2 48948 97.6684 98.6542 0004647 42.7101 317.4525 15.76479899290424 HAWK-3A 1 48957U 21059CG 26247.84752410 .00039963 00000+0 25316-3 0 9991 2 48957 97.6630 95.4459 0004597 45.3664 314.7975 15.76451599290374 HAWK-5C 1 52754U 22057Y 26247.89355484 .00012815 00000+0 20016-3 0 9994 2 52754 97.6674 52.9025 0004604 130.2365 229.9291 15.53944779238710 HAWK-5B 1 52756U 22057AA 26248.02216553 .00012515 00000+0 19543-3 0 9995 2 52756 97.6689 51.4029 0005384 125.1801 234.9957 15.53952247238736 HAWK-5A 1 52757U 22057AB 26247.69999175 .00012886 00000+0 20125-3 0 9995 2 52757 97.6685 51.8856 0005205 128.6414 231.5306 15.53940998238680 HAWK-6B 1 55324U 23011A 26248.03857272 .00002143 00000+0 95923-4 0 9993 2 55324 40.4975 246.1033 0003699 252.2181 107.8225 15.23530096200020 HAWK-6C 1 55326U 23011C 26248.03795233 .00002251 00000+0 10035-3 0 9993 2 55326 40.4960 242.9363 0004010 239.7933 120.2480 15.23526770200036 HAWK-6A 1 55327U 23011D 26248.30017147 .00002441 00000+0 10812-3 0 9999 2 55327 40.4971 243.0377 0003700 240.1400 119.9042 15.23531945200079 HAWK-7A 1 56191U 23054P 26248.21520442 .00002960 00000+0 11072-3 0 9998 2 56191 97.2579 133.5037 0004648 102.9381 257.2379 15.28085231189245 HAWK-7B 1 56193U 23054R 26248.21514971 .00003161 00000+0 11807-3 0 9990 2 56193 97.2593 131.7962 0003644 107.6995 252.4643 15.28087600189241 HAWK-7C 1 56200U 23054Y 26248.21501833 .00003167 00000+0 11827-3 0 9990 2 56200 97.2570 132.5402 0004048 100.5887 259.5809 15.28087984189241